Location: Bratislava
(48.1500°N, 17.1170°E)
Time: 12:59:53
(UTC+01:00)

ISS - Visible Passes

Search period start: 09 December 2023 00:00
Search period end: 19 December 2023 00:00
Orbit: 415 x 417 km, 51.6° (Epoch: 09 December)

Date Brightness Start Highest point End Pass type
(mag) Time Alt. Az. Time Alt. Az. Time Alt. Az.
09 Dec 0.1 16:42:12 10° WSW 16:42:55 11° SW 16:43:38 10° SW visible
16 Dec -0.6 06:09:29 10° S 06:11:23 14° SE 06:13:17 10° E visible
17 Dec -2.6 06:55:24 10° SW 06:58:37 47° SSE 07:01:52 10° ENE visible
18 Dec -1.9 06:06:38 10° SSW 06:09:38 31° SE 06:12:38 10° E visible
